TimeCST,TemperatureF,Dew PointF,Humidity,Sea Level PressureIn,VisibilityMPH,Wind Direction,Wind SpeedMPH,Gust SpeedMPH,PrecipitationIn,Events,Conditions,WindDirDegrees,DateUTC
12:15 AM,23.5,22.3,95,30.12,5.0,Calm,Calm,-,N/A,,Clear,0,2012-11-06 06:15:00
12:35 AM,23.0,21.2,93,30.11,5.0,Calm,Calm,-,N/A,,Clear,0,2012-11-06 06:35:00
12:55 AM,23.4,22.6,97,30.11,3.0,Calm,Calm,-,N/A,,Clear,0,2012-11-06 06:55:00
1:15 AM,24.3,23.7,98,30.10,5.0,Calm,Calm,-,N/A,,Clear,0,2012-11-06 07:15:00
1:35 AM,24.4,23.7,97,30.09,5.0,Calm,Calm,-,N/A,,Clear,0,2012-11-06 07:35:00
1:55 AM,24.4,23.9,98,30.09,7.0,Calm,Calm,-,N/A,,Clear,0,2012-11-06 07:55:00
2:15 AM,25.2,24.4,97,30.09,7.0,Calm,Calm,-,N/A,,Clear,0,2012-11-06 08:15:00
2:35 AM,23.5,22.5,96,30.08,7.0,Calm,Calm,-,N/A,,Clear,0,2012-11-06 08:35:00
2:55 AM,24.6,23.7,96,30.07,7.0,Calm,Calm,-,N/A,,Clear,0,2012-11-06 08:55:00
3:15 AM,23.9,23.4,98,30.07,7.0,Calm,Calm,-,N/A,,Clear,0,2012-11-06 09:15:00
3:35 AM,23.9,22.8,96,30.06,7.0,Calm,Calm,-,N/A,,Clear,0,2012-11-06 09:35:00
3:55 AM,21.0,19.4,93,30.06,5.0,Calm,Calm,-,N/A,,Clear,0,2012-11-06 09:55:00
4:15 AM,24.8,24.3,98,30.06,5.0,Calm,Calm,-,N/A,,Clear,0,2012-11-06 10:15:00
4:35 AM,22.8,22.3,98,30.06,3.0,Calm,Calm,-,N/A,,Clear,0,2012-11-06 10:35:00
4:55 AM,22.5,22.1,99,30.06,2.5,Calm,Calm,-,N/A,,Clear,0,2012-11-06 10:55:00
5:15 AM,21.7,21.0,97,30.05,5.0,Calm,Calm,-,N/A,,Clear,0,2012-11-06 11:15:00
5:35 AM,23.5,22.6,96,30.05,7.0,Calm,Calm,-,N/A,,Clear,0,2012-11-06 11:35:00
5:55 AM,23.2,22.5,97,30.04,5.0,Calm,Calm,-,N/A,,Clear,0,2012-11-06 11:55:00
6:15 AM,23.0,22.3,97,30.03,5.0,Calm,Calm,-,N/A,,Clear,0,2012-11-06 12:15:00
6:35 AM,23.9,23.0,96,30.02,5.0,East,3.5,-,N/A,,Clear,90,2012-11-06 12:35:00
6:55 AM,25.2,23.9,95,30.02,4.0,Calm,Calm,-,N/A,,Clear,0,2012-11-06 12:55:00
7:15 AM,28.4,26.4,92,30.03,5.0,Calm,Calm,-,N/A,,Clear,0,2012-11-06 13:15:00
7:35 AM,30.9,28.2,90,30.04,5.0,Calm,Calm,-,N/A,,Mostly Cloudy,0,2012-11-06 13:35:00
7:55 AM,31.5,28.4,88,30.04,5.0,Calm,Calm,-,N/A,,Overcast,0,2012-11-06 13:55:00
8:15 AM,32.0,29.3,90,30.03,5.0,Calm,Calm,-,N/A,,Overcast,0,2012-11-06 14:15:00
8:35 AM,32.0,30.2,93,30.03,5.0,Calm,Calm,-,N/A,,Overcast,0,2012-11-06 14:35:00
8:55 AM,33.3,30.4,89,30.01,5.0,Calm,Calm,-,N/A,,Overcast,0,2012-11-06 14:55:00
9:15 AM,33.8,30.6,88,30.01,5.0,Calm,Calm,-,N/A,,Overcast,0,2012-11-06 15:15:00
9:35 AM,34.7,30.9,86,30.01,5.0,Calm,Calm,-,N/A,,Overcast,0,2012-11-06 15:35:00
9:55 AM,35.6,31.1,84,30.00,7.0,Calm,Calm,-,N/A,,Overcast,0,2012-11-06 15:55:00
10:15 AM,36.5,31.8,83,30.00,5.0,Calm,Calm,-,N/A,,Haze,0,2012-11-06 16:15:00
10:35 AM,36.9,31.8,82,29.99,7.0,Calm,Calm,-,N/A,,Overcast,0,2012-11-06 16:35:00
10:55 AM,37.6,32.0,80,29.98,7.0,ESE,4.6,-,N/A,,Overcast,110,2012-11-06 16:55:00
11:15 AM,37.9,32.0,79,29.97,7.0,SE,4.6,-,N/A,,Overcast,140,2012-11-06 17:15:00
11:35 AM,38.3,31.6,77,29.96,7.0,SE,5.8,-,N/A,,Overcast,140,2012-11-06 17:35:00
11:55 AM,38.7,32.0,77,29.96,7.0,SE,4.6,-,N/A,,Light Drizzle,140,2012-11-06 17:55:00
12:15 PM,38.8,32.7,79,29.96,5.0,South,5.8,-,N/A,,Light Drizzle,180,2012-11-06 18:15:00
12:35 PM,38.7,33.1,80,29.95,5.0,SSW,3.5,-,N/A,,Drizzle,200,2012-11-06 18:35:00
12:55 PM,38.8,34.2,83,29.94,5.0,South,3.5,-,N/A,,Drizzle,190,2012-11-06 18:55:00
1:15 PM,38.5,34.3,85,29.94,4.0,SSE,3.5,-,N/A,Rain,Light Rain,150,2012-11-06 19:15:00
1:35 PM,38.7,35.6,89,29.93,4.0,SSE,3.5,-,N/A,Rain,Light Rain,160,2012-11-06 19:35:00
1:55 PM,38.7,35.4,88,29.92,4.0,South,4.6,-,N/A,Rain,Light Rain,190,2012-11-06 19:55:00
2:15 PM,38.7,36.0,90,29.91,4.0,South,5.8,-,0.01,Rain,Rain,170,2012-11-06 20:15:00
2:35 PM,38.7,36.3,91,29.91,4.0,SSE,5.8,-,0.01,Rain,Light Rain,150,2012-11-06 20:35:00
2:55 PM,38.3,36.3,93,29.91,3.0,SE,4.6,-,0.02,Rain,Rain,140,2012-11-06 20:55:00
3:15 PM,37.9,36.0,93,29.91,4.0,SE,6.9,-,N/A,,Drizzle,140,2012-11-06 21:15:00
3:35 PM,37.9,36.1,93,29.91,4.0,SE,5.8,-,N/A,,Light Drizzle,140,2012-11-06 21:35:00
3:55 PM,37.9,36.0,93,29.90,3.0,SE,5.8,-,N/A,,Drizzle,140,2012-11-06 21:55:00
4:15 PM,37.8,36.0,93,29.90,3.0,SE,5.8,-,0.01,,Drizzle,130,2012-11-06 22:15:00
4:35 PM,37.8,36.5,95,29.90,2.5,ESE,4.6,-,0.01,,Drizzle,120,2012-11-06 22:35:00
4:55 PM,37.8,36.5,95,29.90,2.5,SE,4.6,-,0.01,Rain,Rain,140,2012-11-06 22:55:00
5:15 PM,37.9,36.9,96,29.91,2.5,SE,3.5,-,N/A,,Drizzle,130,2012-11-06 23:15:00
5:35 PM,38.3,36.9,95,29.91,2.5,SE,5.8,-,0.01,Rain,Light Rain,130,2012-11-06 23:35:00
5:55 PM,38.3,37.0,95,29.91,2.5,SE,5.8,-,0.01,Rain,Rain,130,2012-11-06 23:55:00
6:15 PM,38.3,37.0,95,29.91,2.0,SE,3.5,-,N/A,Rain,Light Rain,130,2012-11-07 00:15:00
6:35 PM,38.3,37.0,95,29.91,2.0,SE,5.8,-,N/A,,Drizzle,130,2012-11-07 00:35:00
6:55 PM,38.3,37.0,95,29.90,2.0,SE,4.6,-,0.01,,Drizzle,140,2012-11-07 00:55:00
7:15 PM,38.3,37.0,95,29.90,2.0,SE,4.6,-,N/A,,Drizzle,130,2012-11-07 01:15:00
7:35 PM,38.3,37.4,97,29.90,2.0,ESE,4.6,-,N/A,,Drizzle,120,2012-11-07 01:35:00
7:55 PM,38.3,37.4,97,29.90,1.8,SE,4.6,-,0.01,,Drizzle,130,2012-11-07 01:55:00
8:15 PM,38.5,37.4,96,29.89,1.8,SE,5.8,-,N/A,Rain,Rain,130,2012-11-07 02:15:00
8:35 PM,38.5,37.4,96,29.89,1.8,SE,5.8,-,0.01,,Drizzle,130,2012-11-07 02:35:00
8:55 PM,38.7,37.6,96,29.89,1.5,ESE,5.8,-,0.02,Rain,Rain,120,2012-11-07 02:55:00
9:15 PM,38.7,37.8,97,29.89,1.5,SE,5.8,-,0.01,Rain,Rain,130,2012-11-07 03:15:00
9:35 PM,38.7,37.8,97,29.89,1.5,SE,5.8,-,0.01,,Drizzle,130,2012-11-07 03:35:00
9:55 PM,38.7,37.8,97,29.89,1.5,ESE,4.6,-,0.02,,Drizzle,120,2012-11-07 03:55:00
10:15 PM,38.8,37.9,97,29.88,1.2,SE,4.6,-,N/A,,Light Drizzle,130,2012-11-07 04:15:00
10:35 PM,38.8,38.3,98,29.88,1.2,ESE,3.5,-,N/A,,Light Drizzle,110,2012-11-07 04:35:00
10:55 PM,39.2,38.3,97,29.87,1.2,SE,3.5,-,N/A,,Light Drizzle,130,2012-11-07 04:55:00
11:15 PM,39.2,38.5,97,29.87,1.2,ESE,3.5,-,N/A,,Light Drizzle,120,2012-11-07 05:15:00
11:35 PM,39.2,38.5,97,29.87,1.2,SE,4.6,-,N/A,,Light Drizzle,130,2012-11-07 05:35:00
11:55 PM,39.4,38.7,97,29.87,1.5,ESE,3.5,-,N/A,,Overcast,120,2012-11-07 05:55:00